Location: Dal�� Lhota
(48.7500°N, 14.0167°E)
Time: 23:20:24
(UTC+00:00)

CENTAUR R/B - Pass Details

Date: 24 September 2020
Orbit: 755 x 1433 km, 63.4° (Epoch: 02 October)

Event Time Altitude Azimuth Distance (km) Brightness Sun altitude
Rises 18:15:43 0° 317° (NW) 4,117 6.8 -13.7°
Reaches altitude 10° 18:18:20 10° 317° (NW) 3,234 6.1 -14.1°
Maximum altitude 18:26:22 80° 233° (SW) 1,392 3.3 -15.4°
Enters shadow 18:34:47 12° 148° (SSE) 3,402 4.9 -16.7°
